Flag for Canada Weather past 2 weeks in Mount Pearl, Newfoundland and Labrador, Canada

Now
54 °F

Low clouds.


Feels Like: 49 °F
Forecast: N/A
Wind: 18 mph from West

Location: St. John's

Current Time: May 30, 2015 at 9:24:16 PM

Latest Report: May 30, 2015 at 8:30 PM


Visibility: 15 mi

Pressure: 30.03 "Hg

Humidity: 94%

Dew point: 52 °F

Location of Mount PearlLocation

Historic Weather in Mount Pearl — Graph

°F

Mount Pearl temperature yesterday

Maximum temperature yesterday: 52 °F (at 12:30 AM)
Minimum temperature yesterday: 34 °F (at 9:30 PM)
Average temperature yesterday: 42 °F

Past Weeks' High & Low Weather Summary

 TemperatureHumidityPressure
High73 °F (May 26, 2:30 PM)100% (May 16, 8:30 PM)30.51 "Hg (May 16, 8:30 PM)
Low30 °F (May 17, 1:30 AM)32% (May 22, 4:30 PM)29.49 "Hg (May 21, 9:30 AM)
Average48 °F81%30.09 "Hg
* Reported May 15 7:30 PM — May 30 7:30 PM, Mount Pearl, Weather by CustomWeather, © 2015

Note: Actual official high and low records may vary slightly from our data, if they occured in-between our weather recording intervals... More about our weather records

Advertising

Mount Pearl weather history for previous 24 hours

 ConditionsComfort  
Time TempWeatherWind HumidityBarometerVisibility
7:30 PM
Sat, May 30
57 °FOvercast.12 mph82%30.05 "Hg15 mi
6:30 PM61 °FPartly sunny.13 mph77%30.07 "Hg15 mi
5:30 PM64 °FBroken clouds.16 mph73%30.08 "Hg15 mi
4:30 PM66 °FScattered clouds.15 mph60%30.11 "Hg15 mi
3:30 PM64 °FPartly sunny.16 mph64%30.13 "Hg15 mi
2:30 PM63 °FPartly sunny.15 mph64%30.16 "Hg15 mi
1:30 PM61 °FPartly sunny.15 mph68%30.20 "Hg15 mi
12:30 PM59 °FBroken clouds.13 mph68%30.23 "Hg15 mi
11:30 AM54 °FPartly sunny.13 mph72%30.26 "Hg15 mi
10:30 AM52 °FBroken clouds.13 mph72%30.28 "Hg15 mi
9:30 AM48 °FBroken clouds.17 mph71%30.30 "Hg15 mi
8:30 AM46 °FPartly sunny.10 mph71%30.33 "Hg15 mi
7:30 AM43 °FScattered clouds.9 mph81%30.34 "Hg15 mi
6:30 AM39 °FScattered clouds.15 mph87%30.33 "Hg15 mi
5:30 AM36 °FPassing clouds.9 mph93%30.34 "Hg15 mi
4:30 AM36 °FPassing clouds.16 mph87%30.33 "Hg15 mi
3:30 AM36 °FPassing clouds.17 mph87%30.34 "Hg15 mi
2:30 AM36 °FPassing clouds.16 mph75%30.36 "Hg15 mi
1:30 AM36 °FPassing clouds.12 mph75%30.38 "Hg15 mi
12:30 AM34 °FClear.10 mph87%30.39 "Hg15 mi
11:30 PM
Fri, May 29
36 °FPassing clouds.10 mph87%30.40 "Hg15 mi
10:30 PM36 °FPassing clouds.8 mph87%30.40 "Hg15 mi
9:30 PM34 °FPassing clouds.6 mph93%30.41 "Hg15 mi
Weather by CustomWeather, © 2015

See weather overviewHow to use our weather pages